Probability
0 0 0 0 0 0 0 0 0 0 0 0 0 0 0 0 0 0 0 0 0 0 0 0 0 0 0 0 0 0 0 0 0 0 0 0 0 0 0 0 0 0 1 2 2 2 1 1 1
0 0 0 0 0 0 0 0 0 0 0 0 0 0 0 0 0 0 0 0 0 0 0 0 0 0 0 0 0 0 0 0 0 0 0 0 0 0 0 0 0 0 1 2 3 3 2 2 2
0 0 0 0 0 0 0 0 0 0 0 0 0 0 0 0 0 0 0 0 0 0 0 0 0 0 0 0 0 0 0 0 0 0 0 0 0 0 0 0 0 0 1 2 3 3 3 2 1
0 0 0 0 0 0 0 0 0 0 0 0 0 0 0 0 0 0 0 0 0 0 0 0 0 0 0 0 0 0 0 0 0 0 0 0 0 0 0 0 0 0 0 1 1 2 1 1 0
0 0 0 0 0 0 0 0 0 0 0 0 0 0 0 0 0 0 0 0 0 0 0 0 0 0 0 0 0 0 0 0 0 0 0 0 0 0 0 0 0 0 0 0 0 0 0 0 0
0 0 0 0 0 0 0 0 0 0 0 0 0 0 0 0 0 0 0 0 0 0 0 0 0 0 0 0 0 0 0 0 0 0 0 0 0 0 0 0 0 0 0 0 0 0 0 0 0
0 0 0 0 0 0 0 0 0 0 0 0 0 0 0 0 0 0 0 0 0 0 0 0 0 0 0 0 0 0 0 0 0 0 0 0 0 0 0 0 0 0 0 0 0 0 0 0 0
0 0 0 0 0 0 0 0 0 0 0 0 0 0 0 0 0 0 0 0 0 0 0 0 0 0 0 0 0 0 0 0 0 0 0 0 0 0 0 0 0 0 0 0 0 0 0 0 0
0 0 0 0 0 0 0 0 0 0 0 0 0 0 0 0 0 0 0 0 0 0 0 0 0 0 0 0 0 0 0 0 0 0 0 0 0 0 0 0 0 0 0 0 0 0 0 0 0
0 0 0 0 0 0 0 0 0 0 0 0 0 0 0 0 0 0 0 0 0 0 0 0 0 0 0 0 0 0 0 0 0 0 0 0 0 0 0 0 0 0 0 0 0 0 0 0 0
0 0 0 0 0 0 0 0 0 0 0 0 0 0 0 0 0 0 0 0 0 0 0 0 0 0 0 0 0 0 0 0 0 0 0 0 0 0 0 0 0 0 0 0 0 0 0 0 0
0 0 0 0 0 0 0 0 0 0 0 0 0 0 0 0 0 0 0 0 0 0 0 0 0 0 0 0 0 0 0 0 0 0 0 0 0 0 0 0 0 0 0 0 0 0 0 0 0
0 0 0 0 0 0 0 0 0 0 0 0 0 0 0 0 0 0 0 0 0 0 0 0 0 0 0 0 0 0 0 0 0 0 0 0 0 0 0 0 0 0 0 0 0 0 0 0 0
0 0 0 0 0 0 0 0 0 0 0 0 0 0 0 0 0 0 0 0 0 0 0 0 0 0 0 0 0 0 0 0 0 0 0 0 0 0 0 0 0 0 0 0 0 0 0 0 0
0 0 0 0 0 0 0 0 0 0 0 0 0 0 0 0 0 0 0 0 0 0 0 0 0 0 0 0 0 0 0 0 0 0 0 0 0 0 0 0 0 0 0 0 0 0 0 0 0
0 0 0 0 0 0 0 0 0 0 0 0 0 0 0 0 0 0 0 0 0 0 0 0 0 0 0 0 0 0 0 0 0 0 0 0 0 0 0 0 0 0 0 0 0 0 0 0 0
0 0 0 0 0 0 0 0 0 0 0 0 0 0 0 0 0 0 0 0 0 0 0 0 0 0 0 0 0 0 0 0 0 0 0 0 0 0 0 0 0 0 0 0 0 0 0 0 0
0 0 0 0 0 0 0 0 0 0 0 0 0 0 0 0 0 0 0 0 0 0 0 0 0 0 0 0 0 0 0 0 0 0 0 0 0 0 0 0 0 0 0 0 0 0 0 0 0
0 0 0 0 0 0 0 0 0 0 0 0 0 0 0 0 0 0 0 0 0 0 0 0 0 0 0 0 0 0 0 0 0 0 0 0 0 0 0 0 0 0 0 0 0 0 0 0 0
0 0 0 0 0 0 0 0 0 0 0 0 0 0 0 0 0 0 0 0 0 0 0 0 0 0 0 0 0 0 0 0 0 0 0 0 0 0 0 0 0 0 0 0 0 0 0 0 0
0 0 0 0 0 0 0 0 0 0 0 0 0 0 0 0 0 0 0 0 0 0 0 0 0 0 0 0 0 0 0 0 0 0 0 0 0 0 0 0 0 0 0 0 0 0 0 0 0
0 0 0 0 0 0 0 0 0 0 0 0 0 0 0 0 0 0 0 0 0 0 0 0 0 0 0 0 0 0 0 0 0 0 0 0 0 0 0 0 0 0 0 0 0 0 0 0 0
0 0 0 0 0 0 0 0 0 0 0 0 0 0 0 0 0 0 0 0 0 0 0 0 0 0 0 0 0 0 0 0 0 0 0 0 0 0 0 0 0 0 0 0 0 0 0 0 0
0 0 0 0 0 0 0 0 0 0 0 0 0 0 0 0 0 0 0 0 0 0 0 0 0 0 0 0 0 0 0 0 0 0 0 0 0 0 0 0 0 0 0 0 0 0 0 0 0
0 0 0 0 0 0 0 0 0 0 0 0 0 0 0 0 0 0 0 0 0 0 0 0 0 0 0 0 0 0 0 0 0 0 0 0 0 0 0 0 0 0 0 0 0 0 0 0 0
0 0 0 0 0 0 0 0 0 0 0 0 0 0 0 0 0 0 0 0 0 0 0 0 0 0 0 0 0 0 0 0 0 0 0 0 0 0 0 0 0 0 0 0 0 0 0 0 0
0 0 0 0 0 0 0 0 0 0 0 0 0 0 0 0 0 0 0 0 0 0 0 0 0 0 0 0 0 0 0 0 0 0 0 0 0 0 0 0 0 0 0 0 0 0 0 0 0
0 0 0 0 0 0 0 0 0 0 0 0 0 0 0 0 0 0 0 0 0 0 0 0 0 0 0 0 0 0 0 0 0 0 0 0 0 0 0 0 0 0 0 0 0 0 0 0 0
0 0 0 0 0 0 0 0 0 0 0 0 0 0 0 0 0 0 0 0 0 0 0 0 0 0 0 0 0 0 0 0 0 0 0 0 0 0 0 0 0 0 0 0 0 0 0 0 0
0 0 0 0 0 0 0 0 0 0 0 0 0 0 0 0 0 0 0 0 0 0 0 0 0 0 0 0 0 0 0 0 0 0 0 0 0 0 0 0 0 0 0 0 0 0 0 0 0
Wind_Speed
3 3 2 3 5 5 2 1 1 1 2 2 4 5 5 4 3 4 0 4 5 4 3 5 8 8 9 9 10 9 9 9 9 9 9 8 8 8 8 8 7 7 6 6 5 5 5 5 5
1 1 3 4 4 3 1 1 1 1 3 3 4 5 6 5 4 5 2 4 5 5 4 5 9 9 9 9 9 9 9 9 9 9 9 8 8 8 8 8 7 6 6 6 5 5 5 5 5
1 2 3 4 3 2 1 1 1 3 3 2 4 4 5 4 4 3 3 6 5 5 4 5 9 9 8 9 9 9 9 9 8 8 8 8 7 7 7 7 6 6 6 6 6 5 5 5 5
3 4 4 4 2 0 1 0 1 3 3 4 4 5 4 3 3 4 6 7 6 4 4 4 8 8 8 8 8 8 8 8 8 8 7 7 6 6 6 6 6 6 6 6 5 5 5 5 5
3 3 4 3 2 1 1 1 1 3 3 4 4 5 4 4 6 8 7 6 6 4 3 3 7 7 7 8 8 8 8 7 7 7 6 6 5 5 5 5 5 6 6 6 6 5 5 5 5
4 4 4 1 1 2 2 1 3 4 4 4 5 5 3 2 6 6 6 5 4 4 3 2 6 7 6 6 6 6 6 6 6 6 5 5 5 5 5 5 5 6 6 6 6 6 6 6 6
3 3 3 2 1 1 1 1 3 4 4 3 4 5 2 1 3 6 5 4 4 3 3 2 3 3 4 4 5 5 5 5 5 6 6 6 6 6 6 6 6 6 6 6 6 6 6 6 6
3 4 3 1 2 1 1 2 3 3 3 3 4 6 4 4 4 6 5 4 3 2 2 1 2 3 3 4 4 4 5 6 6 7 7 7 8 8 7 6 6 6 7 7 7 7 7 7 6
3 4 2 3 3 1 1 3 2 2 4 3 2 3 5 8 8 7 4 2 1 1 0 0 1 1 2 2 4 5 6 7 7 7 8 7 4 5 5 6 7 7 7 7 8 8 8 7 7
3 3 4 3 3 2 1 2 3 4 3 3 4 5 7 8 8 7 5 4 3 2 2 1 1 1 1 2 3 3 3 4 4 3 4 3 3 4 5 7 9 9 9 9 10 9 8 6 3
2 3 1 1 1 2 2 2 2 6 3 4 7 9 8 7 6 6 5 4 4 3 2 2 2 1 0 1 1 2 2 2 3 4 4 3 3 3 4 3 4 5 6 5 6 6 4 3 3
1 0 1 1 1 2 2 2 2 2 3 5 9 11 8 8 7 7 6 4 2 2 2 2 2 1 1 1 1 1 2 2 2 3 4 3 2 3 3 2 3 3 2 3 3 3 4 4 3
1 0 1 1 1 1 3 2 2 2 4 8 9 9 8 8 6 4 4 3 2 2 2 1 2 2 2 1 1 2 2 2 2 3 3 3 2 2 2 2 3 3 2 3 3 3 4 4 4
1 1 2 2 1 1 3 2 3 2 6 9 8 7 7 7 6 4 3 3 3 2 1 1 2 2 3 2 2 2 2 2 2 3 3 3 2 2 2 3 3 3 3 2 2 3 3 3 3
2 3 2 1 1 0 4 3 1 3 7 8 7 6 5 4 4 5 5 4 4 3 2 3 3 3 4 3 3 2 2 2 3 3 3 4 3 3 3 3 3 3 3 3 3 3 3 3 3
3 3 1 1 1 1 4 2 0 4 8 7 5 4 4 3 4 4 4 4 4 4 3 3 4 5 4 4 3 3 3 3 3 3 3 4 4 3 3 3 3 3 3 3 3 3 3 3 3
3 2 2 1 1 1 3 2 1 4 7 6 5 5 4 3 3 3 4 4 4 4 4 4 5 5 5 5 4 4 3 3 2 3 3 3 4 4 3 3 3 3 3 3 3 3 2 3 3
4 3 2 1 0 2 3 1 0 3 5 5 5 4 4 4 4 3 4 4 4 4 5 5 5 5 5 4 4 3 3 3 2 3 3 4 3 4 3 3 4 4 3 4 4 3 3 2 3
4 3 2 1 0 2 2 1 1 2 4 4 4 4 5 4 2 3 3 4 5 5 5 4 5 4 4 2 2 2 1 1 2 2 3 3 4 4 4 3 4 4 3 3 4 2 3 3 3
4 3 2 2 2 2 2 1 0 2 4 5 6 6 6 4 2 3 4 4 5 5 5 4 4 4 3 2 2 2 1 0 1 2 3 3 4 4 3 3 3 3 3 5 5 4 2 3 4
3 4 3 3 2 2 3 3 1 1 1 1 3 4 5 6 6 5 4 4 4 5 5 5 4 4 3 3 3 3 2 2 2 3 2 3 3 3 3 3 3 3 3 3 3 3 3 2 3
2 4 5 4 3 0 2 1 4 1 1 2 3 3 5 5 5 4 5 5 5 4 4 5 5 4 3 3 3 3 2 1 1 1 2 3 3 3 3 3 3 3 2 3 3 3 2 2 2
3 4 5 4 3 2 2 2 5 1 3 5 4 4 5 5 5 5 5 5 4 4 4 4 5 4 3 3 3 3 2 1 0 1 2 3 3 3 3 2 2 3 2 3 3 3 3 2 1
7 7 6 5 3 1 2 3 5 5 7 5 5 5 5 5 5 4 4 4 3 4 4 4 5 3 3 3 3 3 3 2 1 1 2 2 2 3 3 2 2 2 2 2 2 2 3 2 2
6 6 3 2 1 3 2 3 8 6 6 7 8 8 5 5 5 5 5 5 4 4 4 4 5 3 3 3 3 2 3 2 1 1 1 1 2 2 3 2 2 2 2 2 2 2 2 2 2
5 6 6 5 5 2 1 5 7 3 3 4 6 6 6 5 5 5 6 5 5 5 4 5 5 3 3 3 2 2 2 1 1 1 1 1 1 2 2 2 2 2 3 3 3 2 2 2 2
6 3 3 5 3 2 4 5 5 1 3 5 6 6 7 7 6 6 5 5 5 5 4 5 5 4 3 3 2 2 1 1 0 0 0 1 1 1 2 2 2 2 2 3 2 2 3 2 2
4 6 4 4 5 2 3 4 5 6 7 7 8 9 7 6 6 6 5 5 4 4 4 4 4 4 3 3 2 2 1 1 1 1 1 1 1 1 2 2 2 2 3 3 2 2 3 3 3
5 3 3 3 4 5 3 7 7 10 11 12 11 9 9 8 7 6 5 4 4 4 4 4 4 4 3 3 3 3 2 2 2 2 2 1 1 2 2 2 2 2 3 3 3 3 3 3 3
5 7 7 5 4 4 3 8 3 6 9 10 10 8 7 7 7 6 6 5 5 5 4 4 4 4 3 3 3 3 2 2 3 2 2 2 2 2 1 2 2 2 2 2 2 3 3 3 3
Wind_Direction
8 48 69 55 53 53 46 3 26 48 65 52 69 79 86 67 84 118 70 107 109 104 92 101 105 101 99 98 95 91 88 87 85 85 85 83 80 75 70 66 61 56 53 51 50 45 44 42 40
51 66 54 57 76 69 5 0 66 80 134 136 72 71 74 67 69 100 108 115 110 106 95 103 105 100 96 95 93 90 89 85 83 81 80 78 75 71 65 60 55 51 47 42 40 34 29 25 23
47 51 69 63 81 130 135 27 107 77 97 97 75 56 71 85 106 123 139 125 106 96 90 106 105 101 99 96 92 90 88 84 81 79 76 73 71 67 62 57 51 45 40 34 26 18 12 10 9
67 45 53 66 66 54 148 112 102 105 85 60 93 69 61 61 130 132 129 121 108 96 91 109 109 106 102 98 94 91 88 85 80 75 71 68 64 58 54 46 40 35 29 24 16 6 357 356 359
60 72 60 52 36 8 44 42 36 79 72 68 85 82 51 15 101 119 125 122 121 112 101 110 113 110 106 102 98 94 89 83 76 69 62 55 51 45 40 33 25 21 16 12 9 1 352 347 344
54 63 78 79 28 9 32 64 83 77 78 80 86 89 60 83 120 132 125 121 122 120 102 90 113 111 104 99 95 90 83 76 67 57 47 37 29 21 15 12 11 7 1 0 1 355 348 344 338
93 85 108 131 109 32 66 83 100 101 93 98 105 93 92 158 153 132 117 108 102 101 91 58 49 69 87 89 84 75 65 56 46 38 30 23 18 12 4 1 359 356 355 357 359 355 348 342 335
112 95 85 109 138 150 24 85 98 97 99 101 102 125 162 192 143 108 94 84 87 87 83 68 45 43 36 26 36 43 36 32 26 22 21 22 16 8 4 1 358 355 358 2 4 3 359 356 350
87 78 140 188 171 171 105 103 96 70 94 69 76 134 158 137 121 110 97 79 97 160 53 59 30 27 27 9 14 18 18 22 21 15 15 20 8 0 359 359 6 7 10 12 11 12 14 13 5
82 129 199 194 170 156 133 119 134 96 78 81 75 78 109 126 136 144 155 174 194 215 231 216 228 305 3 1 26 11 17 17 15 13 14 15 11 5 15 9 18 18 21 18 18 19 19 19 5
120 178 202 154 136 136 126 105 122 124 143 170 151 143 136 139 149 163 179 192 208 218 230 207 202 220 278 9 18 16 16 15 12 15 18 25 24 13 19 15 12 12 19 15 10 11 7 5 3
112 253 150 134 121 124 125 113 100 136 172 158 151 147 145 153 168 180 187 196 193 196 223 217 180 167 141 66 34 34 31 19 12 9 18 36 34 24 18 19 7 9 2 4 5 358 357 359 2
137 300 87 96 77 103 99 110 116 74 106 121 131 140 153 165 178 190 184 183 179 201 215 196 152 144 128 99 64 63 46 35 22 19 22 45 52 37 27 18 13 8 4 6 0 358 358 1 2
172 100 61 47 61 75 113 94 94 96 123 130 145 159 169 174 178 176 177 184 186 187 167 125 121 130 121 103 87 72 65 52 40 31 27 40 51 48 37 25 13 4 359 358 0 357 357 354 0
96 88 49 22 79 72 104 64 91 137 133 144 163 171 175 186 179 186 190 183 179 164 134 124 123 112 107 100 93 85 68 59 47 28 26 35 42 43 40 30 12 354 351 357 7 6 10 13 13
75 83 93 324 113 71 114 143 256 144 143 158 172 179 184 204 204 203 187 172 158 142 133 126 119 109 102 97 91 81 65 58 45 31 28 32 38 44 43 32 9 352 360 8 13 13 11 12 12
65 125 162 353 48 92 115 160 215 155 155 168 181 190 194 209 225 208 180 166 153 147 135 113 109 111 103 93 84 77 67 58 43 34 29 27 33 39 45 35 8 1 13 12 10 23 19 11 4
158 150 143 162 38 110 122 192 185 156 172 183 184 190 198 205 223 194 171 157 143 133 123 117 110 106 102 90 77 62 52 38 31 28 20 25 26 30 38 38 19 14 22 14 12 17 20 18 359
137 130 130 146 359 120 143 163 183 175 169 186 192 193 201 214 212 152 149 141 131 126 125 127 124 124 119 102 95 85 53 10 11 11 19 24 23 25 35 33 25 23 26 14 9 12 21 14 359
125 117 119 70 44 113 114 50 255 198 197 199 195 196 195 190 165 151 146 144 146 147 144 139 140 140 136 121 122 124 122 52 347 346 8 19 19 15 30 36 27 19 20 20 19 23 22 16 19
141 161 168 141 75 53 90 356 306 268 236 201 195 192 185 184 179 170 157 158 153 158 164 160 153 143 136 122 103 79 56 33 15 2 354 354 10 18 25 28 25 19 26 18 12 21 39 26 12
184 177 158 140 117 10 114 197 275 239 256 215 208 191 186 182 173 168 161 162 170 173 161 150 144 138 137 136 129 123 117 117 273 297 320 339 2 9 17 20 20 19 19 17 6 31 33 50 21
158 124 123 116 120 72 52 134 275 197 225 226 210 193 186 179 170 168 167 166 165 158 151 145 135 131 135 138 139 126 120 140 2 1 358 356 355 357 2 9 13 12 9 10 18 24 33 45 53
121 93 73 58 75 145 211 167 258 219 210 202 195 190 181 174 162 153 141 129 131 127 126 130 133 131 135 138 137 136 136 130 87 21 355 345 341 344 352 359 5 3 1 2 8 21 33 37 46
119 113 94 73 89 237 216 200 246 238 209 188 185 186 177 165 154 148 144 143 145 138 136 132 133 131 134 135 137 145 151 151 162 216 282 316 331 335 333 351 352 355 354 358 8 24 24 29 39
159 141 152 166 187 234 230 230 253 272 202 164 160 162 159 159 158 156 158 157 154 148 140 137 139 136 133 134 136 127 133 142 174 206 216 266 277 291 316 332 341 350 1 12 19 24 12 23 26
136 157 153 122 127 140 250 275 299 106 129 147 150 157 171 171 165 159 153 152 150 144 146 149 143 133 134 140 129 109 101 115 125 34 33 297 297 311 337 346 353 357 8 13 20 22 7 14 14
141 141 117 132 148 193 261 257 234 201 192 180 176 181 180 168 161 152 152 153 147 143 137 130 131 132 127 125 125 110 93 78 73 71 44 353 335 354 9 9 6 6 12 17 25 15 8 18 5
137 141 137 133 155 154 214 260 223 199 187 185 190 186 175 169 164 158 154 148 138 128 126 125 126 121 117 120 108 94 81 70 67 59 32 10 6 13 14 9 20 21 16 16 25 14 14 15 4
171 173 157 158 192 175 181 264 275 203 185 180 179 176 169 163 157 153 150 142 136 133 129 129 129 128 130 122 108 98 82 72 61 41 19 21 23 18 19 26 30 23 17 17 22 8 14 13 3